Location: Ciserano
(45.5833°N, 9.6000°E)
Time: 12:41:28
(UTC+00:00)

Cosmos 2263 Rocket - Pass Details

Date: 29 November 2020
Orbit: 823 x 848 km, 71.0° (Epoch: 25 January)

Event Time Altitude Azimuth Distance (km) Brightness Sun altitude
Exits shadow 04:42:37 32° 312° (NW) 1,412 2.9 -19.9°
Drops below altitude 10° 04:47:31 10° 11° (N) 2,482 4.6 -19.0°
Sets 04:50:15 0° 21° (NNE) 3,423 5.5 -18.6°
